Temperature
23 23 23 23 27 29 27 28 28 28 28 28 27 28 28 28 27 25 20 20 19 19 19 19 19 19 19 19 19 20 19 19 19 19 19 19 19 19 19 19 19 19 19 19 19 19 19 19 19
22 23 23 26 29 28 27 28 28 28 28 27 27 27 27 26 23 21 19 19 19 19 19 19 19 19 19 19 19 19 19 19 19 19 19 19 19 19 19 19 19 19 19 19 18 18 18 18 18
24 24 25 29 28 28 27 28 29 28 27 27 27 26 27 25 22 21 20 19 19 19 19 19 19 19 19 19 19 19 19 19 19 19 19 19 19 19 19 19 19 19 19 18 18 18 18 18 18
23 24 27 29 28 28 28 29 29 28 27 27 27 27 25 23 22 21 20 19 19 19 19 19 19 19 19 19 19 19 19 19 19 19 19 19 19 19 19 19 19 19 19 18 18 18 18 18 18
24 27 29 28 28 28 29 29 28 29 28 27 27 27 25 22 21 20 20 20 19 19 19 19 20 19 19 19 19 19 19 19 19 19 19 19 19 19 19 18 18 18 18 18 18 18 18 18 18
26 28 29 28 28 28 29 28 28 29 28 27 27 27 24 21 21 20 20 20 20 19 19 19 20 19 19 19 19 19 19 19 19 19 18 18 18 18 18 18 18 18 18 18 18 18 18 18 18
27 28 28 28 27 28 29 28 29 29 29 28 27 27 24 22 21 20 20 20 20 19 19 18 19 19 19 19 19 19 19 19 19 18 18 18 18 18 18 18 17 17 18 18 18 18 18 18 18
25 28 28 28 28 28 28 28 28 28 28 27 26 28 26 22 21 20 20 20 19 19 19 19 18 18 18 18 19 19 18 18 18 18 18 18 18 18 18 17 17 17 17 18 18 18 18 18 18
24 28 28 28 28 28 28 28 28 27 27 26 26 26 25 22 21 20 20 19 19 19 19 19 19 18 18 18 18 18 18 18 18 18 18 18 17 17 17 16 18 17 17 18 18 18 18 18 18
26 28 28 27 28 28 28 28 28 28 28 27 26 24 23 22 21 21 20 20 20 19 19 19 19 19 18 18 18 18 18 18 18 18 18 17 17 17 17 17 18 18 18 18 18 18 18 18 18
27 27 27 27 26 26 27 27 27 28 28 28 27 25 23 22 22 22 22 21 21 20 19 19 19 19 18 18 18 18 18 18 18 17 17 17 17 17 17 17 17 17 17 17 18 17 17 18 18
27 27 26 27 25 26 27 27 27 27 27 26 26 26 24 23 23 23 23 22 21 21 20 19 19 19 18 18 18 18 18 18 18 17 17 17 17 17 17 17 17 16 16 16 17 17 17 17 18
27 27 26 25 25 26 26 26 26 26 25 25 26 25 25 25 24 23 23 23 22 21 20 20 19 19 19 18 18 18 18 18 18 18 17 17 17 17 17 17 17 17 17 17 17 17 18 18 18
26 26 25 25 26 25 26 26 26 25 24 25 25 25 25 25 24 24 23 23 22 21 21 20 19 19 19 18 18 18 18 18 18 17 17 18 17 17 17 17 17 17 17 17 17 17 17 17 17
25 26 26 26 26 26 26 26 25 23 24 24 24 24 24 24 24 24 24 23 23 22 21 21 20 19 19 19 18 18 18 18 18 17 18 18 17 17 17 17 17 17 17 17 17 17 17 17 17
26 26 26 26 26 25 26 26 24 23 23 23 23 23 22 22 23 23 23 23 23 22 22 21 20 19 19 19 18 18 18 18 18 17 17 18 18 17 17 17 17 17 17 17 17 17 17 17 17
26 26 26 26 26 26 26 25 23 22 22 22 22 22 22 22 21 22 22 22 22 22 21 21 20 20 19 19 18 18 18 18 17 17 17 17 17 17 17 17 17 17 16 16 17 17 17 17 17
25 25 25 25 25 25 25 24 23 21 21 21 21 21 21 21 20 20 20 21 21 21 21 21 20 20 20 19 19 18 18 17 17 17 17 17 17 17 17 17 17 17 16 16 16 16 16 17 16
24 24 24 25 24 24 24 23 23 21 21 21 20 20 20 20 19 19 19 20 20 21 21 21 21 20 20 19 19 19 18 18 18 18 17 17 17 17 17 17 17 17 17 16 16 16 16 16 16
24 23 24 24 23 23 24 23 22 21 20 19 19 19 19 19 19 19 19 19 20 20 21 21 21 20 20 20 20 19 19 18 18 18 18 18 17 17 17 17 17 17 17 16 16 16 16 16 16
23 22 22 22 23 23 23 23 22 21 20 19 19 18 18 17 17 17 18 18 19 19 20 21 21 21 20 20 20 20 19 19 18 18 18 18 18 17 17 17 17 17 17 17 17 16 16 16 16
22 21 21 21 22 23 23 22 23 21 21 20 18 18 17 17 16 16 16 17 17 18 19 20 20 20 20 19 20 20 19 18 18 18 18 17 17 17 17 17 17 17 16 16 16 16 16 16 16
20 20 21 21 21 22 22 22 23 20 19 19 18 17 17 16 16 16 16 16 16 17 18 19 19 19 19 19 19 19 18 18 17 17 17 17 17 17 17 17 17 16 16 16 16 16 16 16 16
20 20 21 21 21 20 22 22 20 18 17 17 17 17 16 16 16 15 15 15 15 16 17 18 18 18 18 18 18 18 17 17 17 16 17 17 17 17 17 17 16 16 16 16 16 16 16 16 15
19 19 19 20 20 20 21 20 16 16 16 16 16 16 16 15 15 15 14 14 15 15 16 16 17 17 17 17 17 16 16 16 16 16 16 17 17 17 16 16 16 16 15 15 15 15 15 15 15
18 18 17 17 18 19 19 18 15 16 16 16 15 15 15 15 15 14 14 14 14 14 15 15 15 15 15 15 15 15 15 15 15 15 16 16 16 16 16 16 16 16 15 15 15 15 15 15 15
17 17 17 16 17 17 18 16 15 16 16 15 15 14 14 14 14 14 14 13 14 14 14 14 14 14 14 14 14 14 14 15 15 15 15 16 16 16 16 16 16 15 15 15 15 15 15 15 15
15 15 15 15 15 16 16 15 13 13 13 14 13 13 13 13 13 13 13 13 13 13 13 13 13 13 13 13 13 14 14 14 14 15 15 15 16 16 16 16 16 15 15 15 15 15 15 15 15
13 14 14 14 15 14 14 12 12 11 12 12 12 11 11 12 12 13 13 13 13 13 13 13 13 13 13 13 13 14 14 14 14 14 15 15 16 16 16 16 15 15 15 15 15 15 15 15 15
13 13 13 13 13 14 13 12 12 11 11 11 11 10 11 11 12 12 12 12 13 13 13 13 13 13 13 13 14 14 14 14 14 15 15 15 16 16 16 15 15 15 15 15 15 15 15 15 14
Wind_Speed
4 2 3 3 2 7 11 7 5 5 5 5 5 3 4 4 3 3 7 15 16 17 17 19 18 17 16 15 14 13 13 12 12 12 11 11 10 9 9 8 8 8 8 7 7 6 7 7 7
3 1 3 2 4 9 9 5 6 5 6 6 4 3 3 5 5 7 10 14 17 17 17 18 18 17 16 15 14 13 13 12 12 12 11 10 9 9 9 9 9 9 8 8 7 7 7 6 6
2 2 2 2 5 8 8 5 5 6 5 2 3 3 3 4 5 7 11 16 17 16 16 17 17 16 15 15 14 13 13 13 12 11 10 10 9 9 9 9 9 9 10 9 9 8 7 6 5
2 3 2 4 8 6 3 3 3 6 3 1 2 4 4 5 4 8 15 17 16 15 15 17 17 16 15 15 14 13 13 12 12 11 10 9 9 8 8 9 9 10 10 10 10 10 9 8 6
2 2 3 6 6 4 2 0 3 4 2 2 1 3 5 5 7 12 15 15 16 15 15 17 17 16 15 15 14 14 13 13 12 11 10 9 8 8 8 8 9 10 10 10 10 10 9 9 9
2 2 4 5 6 3 3 2 3 3 1 2 2 3 5 7 9 13 14 13 14 15 15 16 16 15 15 14 14 14 14 13 12 12 11 9 8 8 7 8 9 9 9 10 10 9 9 9 9
2 1 3 5 5 4 2 1 2 2 2 2 2 2 5 8 10 13 12 12 13 14 13 14 16 16 15 14 14 15 14 13 13 12 11 10 9 8 7 8 8 8 8 9 9 8 8 8 8
2 2 5 4 5 3 2 1 1 2 2 3 3 0 4 11 13 13 11 11 12 13 13 13 14 15 15 15 15 14 14 14 13 12 11 11 10 8 7 8 8 7 7 8 8 8 7 6 6
3 4 4 4 3 3 1 1 2 1 3 4 2 2 5 15 15 14 12 11 12 12 12 12 12 12 12 13 15 15 14 13 13 13 12 11 10 10 9 7 8 7 8 7 7 7 5 5 8
2 3 1 2 1 2 2 1 1 3 3 3 4 4 10 16 16 15 14 14 14 14 13 11 11 11 11 10 12 11 12 13 13 12 13 11 8 6 5 12 7 7 8 8 6 5 6 7 7
2 1 1 1 1 1 1 1 1 2 2 2 2 7 14 15 15 15 14 13 13 14 13 12 11 11 10 9 9 9 9 10 11 11 11 8 8 7 7 9 10 9 9 8 7 8 5 4 3
2 1 1 2 2 2 2 2 1 2 5 8 7 6 15 17 16 15 14 13 12 12 13 12 12 11 11 9 8 8 8 9 9 10 11 9 6 6 7 6 7 7 6 4 5 3 4 4 4
3 1 1 2 3 3 4 3 2 5 9 8 4 8 15 16 15 14 12 12 12 12 12 13 13 12 11 9 7 8 8 8 9 9 10 10 7 7 6 6 6 7 6 6 4 4 4 3 2
2 3 3 3 3 2 3 1 1 7 10 8 4 4 10 12 12 12 12 12 12 12 12 12 13 12 11 10 9 8 8 8 8 9 10 11 8 7 6 6 6 7 7 5 5 4 4 4 2
3 5 5 2 2 1 3 1 5 8 9 9 7 3 3 7 9 11 11 11 11 11 12 12 12 12 12 12 11 8 8 9 8 9 11 11 9 8 7 6 7 7 8 7 5 4 4 3 3
5 6 7 2 1 1 5 2 7 9 9 9 9 8 5 4 7 9 10 10 11 11 12 12 11 12 12 11 10 8 9 9 8 9 10 12 11 10 7 6 6 8 8 7 5 5 5 5 4
6 8 7 3 1 2 3 1 7 9 8 8 9 8 8 6 6 7 9 10 11 12 13 13 14 14 13 12 10 9 8 8 8 9 9 11 12 11 9 6 6 9 7 7 6 6 6 6 5
6 7 7 5 0 3 3 0 5 8 9 9 9 9 9 9 9 9 9 9 11 12 14 14 14 15 14 12 10 9 8 8 8 8 10 12 11 12 9 5 7 7 7 7 7 7 6 6 5
6 7 8 5 3 4 4 2 3 6 8 10 10 11 11 11 11 9 9 8 10 13 15 16 16 16 14 11 11 10 9 8 8 8 11 12 12 12 10 7 7 7 8 9 9 8 8 7 7
5 7 7 4 2 5 6 5 3 5 8 9 11 12 13 14 14 12 11 9 9 11 15 17 17 17 16 13 12 10 8 7 7 7 9 12 13 12 10 10 8 9 9 11 10 9 8 7 8
5 5 7 8 7 7 8 9 7 3 4 8 11 12 13 14 15 15 14 12 10 10 12 14 16 16 16 15 10 8 6 4 5 6 8 10 12 11 11 10 9 10 10 9 11 11 11 9 9
8 7 10 10 10 9 7 10 6 2 2 9 13 14 15 15 15 15 15 14 12 11 10 12 13 14 13 14 11 11 6 4 4 3 5 7 9 10 10 9 9 8 8 8 9 10 9 10 9
10 12 13 13 14 14 12 11 5 2 5 11 14 15 15 15 15 15 15 14 12 11 8 5 6 9 11 12 11 9 5 2 1 0 3 5 6 8 9 8 7 7 7 8 8 8 9 9 10
13 14 13 11 11 15 14 13 3 5 9 13 15 16 16 15 15 14 14 13 11 10 6 1 5 8 10 11 10 10 9 5 2 1 3 4 4 6 8 7 7 7 6 7 7 7 9 9 10
13 12 7 7 8 9 4 5 5 8 9 12 14 15 15 15 14 14 14 12 11 10 7 4 6 9 10 12 12 11 9 6 2 1 3 4 4 5 7 7 6 6 5 5 6 7 7 9 9
11 9 6 6 6 4 2 2 6 8 10 12 13 14 15 15 14 13 12 9 8 8 7 7 8 9 10 11 12 11 9 5 1 2 4 5 4 4 6 6 6 5 5 5 5 5 6 7 8
10 8 7 7 8 7 2 4 4 13 15 17 17 17 17 16 14 11 9 8 8 8 8 9 9 10 9 9 10 9 7 5 1 3 5 4 4 4 6 6 6 5 5 5 5 5 6 6 7
8 8 6 4 4 3 0 4 8 17 19 18 18 18 17 16 12 10 8 9 9 8 9 9 9 9 9 8 7 6 6 4 1 4 6 6 6 6 6 6 6 6 6 5 4 4 3 5 5
10 7 5 4 4 3 2 3 8 12 14 15 16 16 16 14 12 10 9 9 8 8 9 9 8 7 7 6 6 5 3 1 4 6 7 6 6 6 6 6 7 7 6 6 4 3 3 4 5
7 8 5 4 4 4 2 2 7 11 12 14 15 16 16 15 13 12 11 10 9 9 8 8 7 6 5 4 3 2 2 5 7 8 6 5 5 6 7 7 7 6 6 5 5 4 4 4 4
Wind_Direction
251 188 199 225 178 91 82 85 85 90 80 76 73 63 44 28 355 49 124 153 147 148 146 150 152 151 150 147 146 145 143 140 138 135 131 127 123 118 113 107 101 97 96 95 95 95 94 96 101
305 210 241 236 111 96 87 86 85 77 104 109 91 67 55 64 54 101 138 151 151 149 150 152 153 153 153 152 152 151 148 144 141 137 133 129 125 121 115 109 102 96 93 93 93 92 90 91 96
222 233 271 121 87 83 91 87 88 110 124 131 97 58 40 60 98 124 143 153 155 151 151 147 155 155 156 155 154 153 151 149 147 144 140 136 131 126 120 113 104 97 90 85 86 89 88 86 90
241 234 225 118 99 84 78 88 123 144 152 130 126 99 83 74 110 128 143 156 156 155 153 150 157 157 159 158 157 157 155 154 154 152 148 142 136 132 127 121 110 101 93 85 81 82 81 77 80
254 259 152 122 107 102 101 94 178 172 140 138 127 91 102 101 115 134 149 158 162 161 158 155 160 161 162 160 160 161 160 159 159 158 153 146 140 137 134 128 117 108 99 89 82 78 75 71 81
252 241 162 136 122 119 124 159 193 204 153 161 165 112 102 128 143 148 154 164 167 165 164 159 163 167 167 166 164 162 162 162 163 162 157 150 146 142 137 131 124 114 104 94 86 79 76 74 83
278 196 155 147 148 142 102 124 201 195 195 183 182 122 126 146 152 156 158 165 169 169 171 168 169 173 173 172 170 167 167 167 167 165 162 158 152 146 139 130 123 120 113 103 94 87 83 78 83
315 190 160 163 167 139 92 165 204 228 144 129 194 234 147 155 156 158 159 165 172 176 178 179 178 176 176 176 176 175 173 172 170 169 167 162 157 155 150 154 134 135 127 114 105 98 94 86 89
289 229 185 165 174 126 76 154 127 164 152 165 189 31 115 146 157 161 163 170 178 185 185 187 184 181 181 178 172 179 178 176 174 174 170 175 179 168 170 134 135 144 135 125 115 109 114 130 121
283 241 133 87 71 80 52 30 133 191 194 187 167 135 143 156 168 174 177 179 182 187 191 191 191 185 184 180 173 184 181 179 187 181 176 189 178 167 149 124 151 148 141 136 124 134 167 207 152
294 299 45 82 29 344 3 33 356 256 256 322 255 179 168 174 181 186 189 188 186 187 190 196 196 192 187 184 180 183 183 184 190 183 180 189 174 168 170 163 165 166 174 166 153 191 170 162 125
281 321 328 9 20 317 323 339 338 344 346 328 300 207 182 187 191 194 194 191 188 190 192 195 200 195 195 193 187 186 185 186 188 189 185 184 186 183 172 184 173 174 184 175 191 187 164 167 166
259 269 21 349 327 313 304 309 327 21 349 333 308 197 193 196 196 197 198 193 193 192 195 196 199 201 197 196 196 196 192 191 190 187 192 188 187 188 174 184 182 195 181 179 195 206 167 178 144
314 297 301 314 313 336 316 333 56 20 1 8 7 207 208 207 206 201 202 202 200 198 199 195 199 201 200 194 199 201 195 195 197 188 199 194 191 192 183 190 187 192 189 187 195 186 174 182 159
275 269 260 274 284 331 288 160 57 17 11 27 23 12 268 232 223 224 217 217 214 207 205 199 201 200 202 203 202 200 199 196 198 195 203 198 195 194 193 192 187 189 190 191 199 175 184 172 164
254 252 251 204 255 292 273 236 47 15 20 28 24 22 360 299 261 246 239 234 229 222 218 207 202 206 203 203 203 202 203 200 200 198 205 205 200 200 194 191 192 193 192 197 192 203 196 187 194
238 256 262 236 196 297 279 243 47 27 29 30 23 16 8 355 326 295 275 257 245 235 227 219 211 210 205 202 204 206 203 201 206 204 204 210 209 207 200 200 194 191 199 206 207 210 213 208 204
277 269 261 259 308 290 265 225 56 41 39 34 24 15 9 360 350 329 309 288 263 245 235 226 216 214 207 200 204 201 206 205 207 208 209 214 217 219 215 205 208 203 207 213 220 216 226 233 220
298 281 274 282 323 288 267 250 73 56 42 31 21 12 5 357 348 343 325 298 275 252 238 231 221 214 208 199 199 198 201 205 208 211 214 215 221 225 228 225 217 215 219 219 223 223 221 226 225
296 284 285 286 309 286 267 252 140 79 51 31 16 7 1 354 350 349 340 322 291 266 248 235 223 217 208 201 198 198 197 204 208 211 216 220 223 225 230 230 227 224 226 225 224 220 224 222 220
305 308 303 295 292 256 264 247 197 140 61 32 17 7 1 356 348 346 344 335 315 287 263 243 230 216 205 196 188 176 169 168 185 208 215 220 226 228 228 231 230 229 226 227 227 221 223 222 219
307 336 307 288 275 263 247 267 203 163 28 16 6 0 356 352 348 345 342 338 329 313 286 254 232 212 195 185 179 173 177 187 203 210 215 215 217 221 222 227 229 228 228 230 229 225 225 223 218
327 316 295 280 269 266 246 255 223 73 359 358 355 352 349 347 344 342 340 337 336 331 314 269 210 182 169 167 165 152 133 119 74 320 239 220 213 215 215 217 220 227 228 232 230 228 228 226 226
327 305 279 257 254 252 245 239 209 35 357 346 346 346 345 342 340 341 340 342 345 348 351 12 139 144 148 145 136 124 114 96 66 303 252 226 209 208 208 205 211 219 225 229 228 228 228 235 235
348 332 292 254 234 246 233 230 82 39 6 349 341 341 341 341 339 339 342 344 351 360 15 54 105 114 120 124 118 110 103 88 60 295 246 229 212 202 197 198 206 210 219 224 224 228 232 232 237
344 340 321 290 281 289 235 159 93 33 8 356 349 345 344 344 341 341 345 352 4 16 29 62 87 98 107 115 114 107 99 91 54 292 255 237 224 204 188 190 194 194 203 210 217 233 232 238 236
341 342 327 292 287 278 239 105 98 9 5 358 354 351 348 344 343 350 1 14 29 34 41 62 74 83 89 96 100 97 93 89 47 290 254 239 217 192 183 181 184 185 191 205 208 228 230 238 240
356 327 313 303 302 275 247 62 7 353 349 346 349 348 344 343 351 2 17 31 45 45 46 51 58 71 78 77 80 81 70 62 345 277 253 228 210 186 183 189 187 184 186 192 204 221 228 235 238
0 354 332 303 295 313 346 53 6 343 342 344 348 350 349 355 4 14 25 30 35 38 42 43 45 48 55 60 59 54 44 321 263 254 246 226 207 190 190 196 201 191 189 190 190 215 208 231 238
15 358 342 343 353 350 344 40 1 352 357 360 358 359 3 9 17 20 23 24 26 24 24 30 31 29 28 38 41 10 280 257 249 244 232 216 208 203 203 195 203 198 200 202 199 204 216 232 245
Height
1508 1507 1506 1508 1506 1506 1514 1511 1507 1508 1507 1510 1510 1509 1509 1510 1513 1521 1522 1523 1526 1528 1530 1531 1534 1536 1537 1539 1541 1542 1544 1545 1545 1546 1547 1548 1548 1549 1550 1550 1550 1551 1551 1551 1551 1552 1552 1553 1553
1508 1507 1509 1508 1504 1515 1518 1510 1508 1508 1511 1512 1512 1512 1512 1514 1518 1520 1521 1523 1526 1529 1531 1533 1534 1536 1538 1540 1542 1543 1544 1545 1546 1547 1548 1549 1550 1550 1551 1551 1551 1551 1551 1551 1552 1552 1553 1553 1554
1508 1508 1510 1505 1507 1514 1516 1509 1508 1510 1513 1513 1513 1514 1514 1517 1520 1521 1522 1524 1527 1530 1532 1533 1535 1537 1539 1540 1542 1544 1545 1546 1547 1548 1549 1550 1551 1551 1552 1552 1552 1552 1552 1552 1552 1553 1553 1554 1555
1510 1511 1509 1505 1512 1511 1510 1508 1509 1511 1513 1513 1513 1514 1517 1520 1521 1522 1522 1525 1528 1531 1533 1534 1536 1538 1539 1541 1543 1544 1545 1547 1548 1549 1550 1551 1552 1552 1552 1552 1552 1552 1553 1553 1553 1553 1554 1555 1555
1510 1510 1507 1510 1511 1509 1508 1509 1510 1510 1511 1513 1513 1513 1518 1521 1521 1522 1524 1527 1529 1532 1534 1534 1536 1538 1540 1541 1543 1544 1546 1547 1548 1549 1551 1551 1552 1552 1552 1553 1553 1553 1553 1553 1554 1554 1555 1555 1556
1512 1507 1509 1514 1512 1509 1508 1510 1510 1510 1511 1513 1514 1514 1519 1521 1522 1523 1525 1528 1530 1532 1534 1535 1536 1538 1539 1541 1543 1544 1546 1547 1548 1549 1550 1551 1552 1552 1553 1553 1553 1553 1553 1554 1554 1555 1556 1557 1557
1512 1507 1510 1511 1513 1510 1509 1510 1509 1509 1510 1513 1514 1514 1518 1521 1522 1524 1526 1528 1530 1532 1534 1536 1536 1537 1539 1541 1543 1545 1546 1547 1548 1549 1550 1551 1552 1552 1553 1553 1553 1553 1553 1554 1555 1556 1557 1558 1558
1512 1508 1511 1511 1512 1511 1510 1510 1511 1510 1511 1514 1515 1513 1517 1520 1521 1523 1526 1528 1530 1532 1534 1536 1537 1539 1539 1540 1542 1544 1546 1547 1548 1549 1550 1551 1552 1552 1553 1553 1553 1553 1554 1554 1555 1556 1557 1558 1559
1513 1510 1511 1511 1511 1510 1511 1510 1511 1512 1512 1514 1515 1515 1517 1518 1520 1523 1525 1527 1529 1531 1534 1536 1537 1539 1540 1541 1541 1543 1545 1546 1547 1548 1549 1550 1552 1553 1554 1554 1553 1553 1554 1555 1555 1557 1558 1558 1559
1512 1510 1509 1510 1510 1510 1511 1510 1511 1511 1511 1513 1515 1516 1516 1517 1520 1521 1523 1525 1527 1530 1532 1535 1536 1538 1539 1540 1541 1542 1544 1545 1547 1548 1549 1551 1553 1554 1555 1552 1553 1554 1554 1555 1556 1557 1558 1559 1561
1512 1511 1510 1511 1513 1513 1512 1511 1511 1510 1510 1511 1513 1515 1516 1517 1519 1521 1522 1524 1526 1529 1531 1533 1535 1537 1538 1539 1540 1541 1542 1544 1546 1548 1549 1551 1552 1553 1554 1554 1554 1555 1556 1558 1557 1558 1560 1561 1561
1513 1512 1513 1512 1514 1514 1513 1512 1512 1512 1513 1513 1513 1513 1514 1515 1517 1519 1521 1524 1526 1528 1530 1531 1533 1535 1537 1538 1539 1540 1541 1543 1545 1547 1549 1550 1551 1553 1554 1554 1556 1556 1557 1558 1559 1560 1561 1561 1562
1512 1512 1514 1514 1514 1514 1513 1512 1513 1514 1514 1512 1511 1511 1513 1514 1517 1519 1521 1523 1525 1527 1528 1530 1531 1534 1535 1537 1537 1539 1540 1542 1544 1545 1548 1549 1550 1552 1552 1554 1554 1556 1557 1558 1558 1560 1561 1561 1562
1514 1514 1514 1514 1513 1513 1512 1512 1513 1515 1514 1512 1511 1512 1513 1515 1517 1519 1520 1522 1524 1526 1527 1529 1530 1532 1533 1535 1536 1538 1539 1540 1543 1544 1546 1548 1549 1551 1551 1553 1553 1555 1556 1558 1559 1560 1560 1561 1561
1514 1513 1512 1512 1512 1512 1512 1511 1515 1517 1515 1513 1513 1513 1514 1515 1517 1519 1520 1522 1524 1525 1527 1528 1529 1530 1532 1534 1535 1536 1537 1539 1541 1542 1545 1547 1548 1549 1550 1551 1552 1553 1555 1557 1558 1559 1560 1560 1560
1511 1511 1512 1510 1511 1511 1512 1513 1517 1517 1516 1515 1514 1514 1514 1515 1516 1517 1519 1520 1522 1523 1525 1526 1527 1528 1530 1531 1533 1534 1535 1537 1538 1540 1542 1545 1547 1548 1549 1550 1551 1552 1554 1556 1556 1558 1558 1559 1559
1510 1511 1511 1510 1510 1510 1510 1513 1518 1519 1517 1516 1516 1515 1514 1514 1514 1515 1516 1517 1519 1520 1522 1524 1525 1526 1528 1529 1530 1532 1533 1534 1536 1538 1540 1542 1545 1546 1547 1548 1549 1551 1552 1553 1555 1556 1557 1558 1558
1514 1512 1512 1512 1510 1511 1511 1514 1517 1519 1519 1518 1517 1516 1515 1514 1513 1512 1511 1512 1514 1516 1518 1520 1521 1523 1525 1526 1528 1529 1530 1532 1533 1535 1537 1539 1541 1543 1545 1546 1547 1548 1549 1551 1552 1553 1554 1555 1556
1514 1514 1514 1512 1512 1513 1512 1513 1516 1519 1519 1518 1517 1516 1515 1514 1512 1510 1508 1508 1508 1509 1511 1514 1516 1519 1520 1522 1523 1525 1527 1529 1530 1532 1534 1536 1538 1539 1541 1543 1545 1545 1546 1547 1549 1550 1551 1552 1554
1516 1517 1516 1513 1514 1513 1511 1512 1515 1519 1519 1520 1518 1516 1515 1512 1510 1508 1506 1505 1503 1503 1504 1507 1510 1513 1515 1516 1519 1521 1524 1526 1528 1529 1530 1532 1534 1536 1538 1539 1541 1542 1543 1544 1545 1546 1547 1548 1550
1519 1521 1520 1519 1514 1512 1512 1511 1512 1516 1518 1519 1519 1517 1515 1512 1509 1506 1503 1501 1499 1498 1498 1500 1503 1506 1508 1511 1513 1516 1519 1522 1524 1526 1527 1529 1531 1533 1534 1536 1538 1538 1539 1540 1541 1542 1543 1544 1545
1522 1522 1522 1519 1517 1511 1511 1513 1507 1512 1515 1517 1517 1516 1514 1512 1508 1505 1501 1498 1495 1493 1492 1493 1495 1498 1501 1504 1506 1510 1514 1518 1521 1523 1525 1526 1528 1529 1531 1532 1534 1535 1536 1537 1538 1538 1539 1540 1540
1527 1525 1521 1517 1514 1512 1508 1512 1504 1511 1516 1517 1518 1516 1514 1511 1508 1504 1500 1496 1493 1489 1487 1487 1488 1491 1493 1497 1499 1503 1508 1512 1517 1520 1522 1523 1524 1526 1528 1529 1531 1532 1533 1534 1534 1535 1535 1536 1537
1528 1522 1514 1513 1512 1515 1503 1507 1512 1522 1524 1521 1519 1517 1514 1511 1507 1503 1499 1495 1491 1487 1485 1484 1484 1486 1488 1491 1494 1497 1502 1507 1512 1516 1520 1521 1521 1523 1524 1526 1528 1529 1530 1531 1531 1531 1531 1532 1533
1529 1527 1521 1517 1515 1510 1501 1508 1527 1529 1528 1526 1522 1518 1514 1511 1507 1503 1498 1495 1491 1487 1485 1483 1483 1484 1486 1487 1490 1493 1498 1503 1508 1513 1517 1519 1520 1521 1522 1524 1525 1527 1527 1528 1528 1528 1528 1528 1529
1535 1533 1538 1536 1525 1516 1510 1519 1534 1530 1529 1527 1523 1519 1514 1510 1506 1502 1498 1494 1491 1488 1486 1484 1484 1484 1485 1487 1488 1491 1495 1499 1505 1510 1515 1517 1519 1520 1521 1522 1524 1524 1525 1525 1525 1525 1525 1526 1526
1541 1537 1537 1538 1528 1525 1518 1526 1531 1529 1528 1526 1523 1518 1514 1510 1506 1502 1498 1495 1493 1490 1488 1487 1486 1486 1486 1487 1489 1491 1495 1499 1504 1509 1513 1516 1518 1519 1521 1521 1522 1522 1523 1523 1523 1523 1523 1523 1522
1549 1545 1541 1541 1540 1533 1527 1533 1542 1536 1533 1529 1525 1521 1515 1510 1506 1503 1500 1497 1495 1493 1491 1490 1489 1489 1489 1490 1491 1494 1497 1501 1505 1509 1512 1515 1517 1518 1519 1520 1521 1521 1521 1521 1521 1521 1520 1520 1519
1553 1551 1547 1543 1541 1543 1544 1551 1548 1545 1540 1534 1529 1523 1517 1511 1508 1505 1502 1500 1498 1496 1494 1494 1493 1493 1493 1494 1496 1498 1501 1504 1507 1510 1512 1514 1516 1517 1518 1519 1520 1521 1521 1520 1520 1520 1519 1518 1518
1557 1555 1552 1551 1547 1544 1549 1557 1550 1546 1542 1537 1531 1525 1520 1515 1511 1508 1506 1503 1502 1500 1499 1498 1497 1497 1497 1498 1500 1502 1504 1506 1509 1511 1512 1513 1515 1516 1517 1518 1519 1519 1519 1519 1519 1518 1518 1517 1516